Location: Unspecified
(0.0000°N, 0.0000°E)
Time: 22:10:54
(UTC+01:00)

Atlas Centaur 2 - Visible Passes

Search period start: 01 February 2015 00:00
Search period end: 11 February 2015 00:00
Orbit: 460 x 1324 km, 30.4° (Epoch: 01 February)

Date Brightness Start Highest point End Pass type
(mag) Time Alt. Az. Time Alt. Az. Time Alt. Az.
01 Feb 2.5 19:51:54 10° NW 19:56:58 48° NE 20:03:28 10° ESE visible
01 Feb 3.5 21:40:41 10° W 21:46:33 42° SSW 21:46:59 42° SSW visible
02 Feb 5.3 05:12:11 10° S 05:14:20 11° SSE 05:16:38 10° SE visible
02 Feb 2.2 19:50:24 10° NW 19:55:28 67° NNE 20:02:05 10° ESE visible
02 Feb 4.0 21:39:48 10° W 21:45:14 31° SSW 21:46:58 28° S visible
03 Feb 5.2 05:09:03 10° SSW 05:13:12 15° SSE 05:17:18 10° SE visible
03 Feb 2.1 19:49:02 10° WNW 19:54:01 87° SSW 20:00:31 10° ESE visible
03 Feb 4.4 21:39:09 10° WSW 21:43:59 23° SSW 21:46:53 18° S visible
04 Feb 5.0 05:06:32 10° SSW 05:12:02 20° SSE 05:17:12 10° ESE visible
04 Feb 2.6 19:47:48 10° WNW 19:52:37 61° SSW 19:58:50 10° SE visible
04 Feb 4.7 21:38:47 10° WSW 21:42:46 17° SSW 21:46:37 11° SSE visible
05 Feb 4.7 05:04:14 10° SSW 05:10:45 25° SSE 05:16:43 10° E visible
05 Feb 3.2 19:46:43 10° W 19:51:15 41° SSW 19:56:58 10° SE visible
05 Feb 5.0 21:39:01 10° SW 21:41:38 12° SSW 21:44:15 10° S visible
06 Feb 5.5 03:19:24 12° SSE 03:19:24 12° SSE 03:21:08 10° SE visible
06 Feb 4.3 05:02:16 11° SSW 05:09:24 33° SSE 05:15:58 10° E visible
06 Feb 3.8 19:45:51 10° W 19:49:58 29° SSW 19:54:57 10° SSE visible
07 Feb 5.4 03:19:25 14° SE 03:19:25 14° SE 03:21:32 10° SE visible
07 Feb 3.9 05:02:17 19° SSW 05:07:58 42° SSE 05:15:00 10° E visible
07 Feb 4.2 19:45:14 10° WSW 19:48:43 20° SSW 19:52:43 10° SSE visible
08 Feb 5.3 03:19:27 15° SE 03:19:27 15° SE 03:21:22 10° ESE visible
08 Feb 3.5 05:02:19 30° SSW 05:06:28 55° SSE 05:13:52 10° ENE visible
08 Feb 4.6 19:45:04 10° SW 19:47:31 14° SSW 19:50:05 10° S visible
09 Feb 5.3 03:19:26 14° ESE 03:19:26 14° ESE 03:20:51 10° ESE visible
09 Feb 3.1 05:02:18 47° SSW 05:04:53 70° SSE 05:12:33 10° ENE visible
09 Feb 3.5 06:47:26 10° W 06:54:49 36° NNW 07:01:01 10° NNE visible
10 Feb 5.4 03:19:17 13° E 03:19:17 13° E 03:20:03 10° E visible
10 Feb 2.9 05:02:07 71° SW 05:03:16 88° SSE 05:11:06 10° ENE visible
10 Feb 3.8 06:46:20 10° W 06:53:15 29° NNW 06:59:08 10° NNE visible
